Ketchikan, AK

4:41 PM AKST on December 12, 2018 (GMT -0900)
Ketchikan International

Weather History for PAKT - October, 2018

Change the Weather History Date:

Wednesday, October 10, 2018

  Actual Average Record
Temperature  
Mean Temperature 46 °F -  
Max Temperature 54 °F 53 °F 66 °F (1963)
Min Temperature 39 °F 40 °F 26 °F (1972)
Degree Days  
Heating Degree Days 18    
Moisture  
Dew Point 41 °F    
Average Humidity 86    
Maximum Humidity 96    
Minimum Humidity 66    
Precipitation  
Precipitation 0.12 in - - ()
Sea Level Pressure  
Sea Level Pressure 30.13 in    
Wind  
Wind Speed 3 mph (SSE)    
Max Wind Speed 8 mph    
Max Gust Speed -    
Visibility 8 miles    
Events Fog , Rain    
Averages and records for this station are not official NWS values.
T = Trace of Precipitation, MM = Missing Value Source: NWS Daily Summary

Daily Weather History Graph

Daily Weather History Graph

Search for Another Location

Airport or City:

Astronomy

Oct. 10, 2018 Rise Set
Actual Time 7:07 AM AKDT 5:59 PM AKDT
Civil Twilight 6:30 AM AKDT 6:35 PM AKDT
Nautical Twilight 5:48 AM AKDT 7:17 PM AKDT
Astronomical Twilight 5:05 AM AKDT 8:00 PM AKDT
Moon 8:51 AM AKDT (10/10) 7:10 PM AKDT (10/10)
Length of Visible Light 12h 04m
Length of Day
10h 51m
Waxing Crescent, 4% of the Moon is Illuminated
Oct 10
Waxing Crescent
Oct 16
First Quarter
Oct 24
Full
Oct 31
Last Quarter
Nov 7
New

Hourly Weather History & Observations

Time (AKDT) Temp. Windchill Dew Point Humidity Pressure Visibility Wind Dir Wind Speed Gust Speed Precip Events Conditions
12:53 AM 42.1 °F - 39.9 °F 92% 30.14 in 10.0 mi Calm Calm - N/A   Clear
1:53 AM 39.0 °F - 37.0 °F 93% 30.15 in 10.0 mi Calm Calm - N/A   Clear
2:53 AM 41.0 °F 37.1 °F 37.9 °F 89% 30.15 in 10.0 mi WNW 5.8 mph - N/A   Clear
3:53 AM 41.0 °F 38.0 °F 39.0 °F 93% 30.14 in 10.0 mi WNW 4.6 mph - N/A   Clear
4:53 AM 42.1 °F 39.2 °F 39.9 °F 92% 30.14 in 10.0 mi WNW 4.6 mph - N/A   Clear
5:53 AM 41.0 °F 39.0 °F 39.0 °F 93% 30.15 in 10.0 mi WNW 3.5 mph - N/A   Clear
6:07 AM 41.0 °F 38.0 °F 37.9 °F 89% 30.15 in 10.0 mi NW 4.6 mph - N/A   Clear
6:53 AM 39.9 °F 37.8 °F 37.9 °F 93% 30.16 in 10.0 mi WNW 3.5 mph - N/A   Scattered Clouds
7:53 AM 41.0 °F 39.0 °F 39.0 °F 93% 30.16 in 10.0 mi West 3.5 mph - N/A   Scattered Clouds
8:16 AM 43.0 °F 40.3 °F 41.0 °F 93% 30.14 in 1.0 mi ESE 4.6 mph - N/A   Mostly Cloudy
8:17 AM 42.1 °F 38.4 °F 39.9 °F 92% 30.14 in 1.0 mi ESE 5.8 mph - N/A   Overcast
8:28 AM 42.1 °F 40.2 °F 39.9 °F 92% 30.14 in 0.5 mi SSE 3.5 mph - N/A Fog Fog
8:36 AM 42.1 °F 40.2 °F 41.0 °F 96% 30.15 in 2.5 mi SE 3.5 mph - N/A   Overcast
8:43 AM 43.0 °F 41.3 °F 41.0 °F 93% 30.15 in 1.0 mi ESE 3.5 mph - N/A   Overcast
8:53 AM 42.8 °F 41.1 °F 41.0 °F 93% 30.15 in 1.0 mi SE 3.5 mph - N/A   Mostly Cloudy
9:00 AM 42.8 °F - 41.0 °F 93% 30.14 in 2.0 mi Calm Calm - N/A   Mostly Cloudy
9:03 AM 43.0 °F - 41.0 °F 93% 30.15 in 7.0 mi Calm Calm - N/A   Scattered Clouds
9:53 AM 44.6 °F - 42.8 °F 93% 30.14 in 10.0 mi Calm Calm - N/A   Scattered Clouds
10:53 AM 46.9 °F - 42.1 °F 83% 30.13 in 10.0 mi ESE 4.6 mph - N/A   Partly Cloudy
11:53 AM 51.8 °F - 42.8 °F 71% 30.15 in 10.0 mi NNW 5.8 mph - N/A   Clear
12:53 PM 51.8 °F - 42.8 °F 71% 30.15 in 10.0 mi North 6.9 mph - N/A   Clear
1:53 PM 53.6 °F - 42.8 °F 67% 30.14 in 10.0 mi Calm Calm - N/A   Clear
2:53 PM 54.0 °F - 43.0 °F 66% 30.13 in 10.0 mi SE 8.1 mph - N/A   Clear
3:53 PM 51.8 °F - 42.8 °F 71% 30.12 in 10.0 mi SE 4.6 mph - N/A   Partly Cloudy
4:53 PM 51.8 °F - 42.8 °F 71% 30.11 in 10.0 mi SE 5.8 mph - N/A   Mostly Cloudy
5:53 PM 50.0 °F - 43.0 °F 77% 30.10 in 10.0 mi SSE 4.6 mph - N/A   Scattered Clouds
6:53 PM 50.0 °F - 41.0 °F 71% 30.06 in 10.0 mi South 4.6 mph - N/A   Mostly Cloudy
7:53 PM 48.9 °F - 41.0 °F 74% 30.06 in 10.0 mi SE 5.8 mph - 0.00 in   Mostly Cloudy
8:53 PM 48.9 °F - 44.1 °F 83% 30.06 in 10.0 mi SE 5.8 mph - 0.00 in Rain Light Rain
9:53 PM 48.0 °F - 45.0 °F 89% 30.07 in 9.0 mi SSE 3.5 mph - 0.04 in Rain Light Rain
10:53 PM 48.0 °F - 46.0 °F 93% 30.06 in 9.0 mi SSE 6.9 mph - 0.05 in Rain Light Rain
11:53 PM 48.0 °F - 45.0 °F 89% 30.04 in 6.0 mi SSE 6.9 mph - 0.03 in Rain Light Rain